Wahoo, NE

7:30 AM CDT on October 24, 2017 (GMT -0500)
Wahoo Municipal

Weather History for KAHQ - June, 2013

Change the Weather History Date:

Wednesday, June 26, 2013

  Actual Average Record
Temperature  
Mean Temperature 82 °F -  
Max Temperature 92 °F 87 °F 99 °F (1971)
Min Temperature 72 °F 62 °F 49 °F (1982)
Cooling Degree Days 17    
Growing Degree Days 32 (Base 50)    
Moisture  
Dew Point 65 °F    
Average Humidity 61    
Maximum Humidity 93    
Minimum Humidity 30    
Precipitation  
Precipitation 0.00 in - - ()
Sea Level Pressure  
Sea Level Pressure 29.82 in    
Wind  
Wind Speed 6 mph (NW)    
Max Wind Speed 16 mph    
Max Gust Speed 20 mph    
Visibility 10 miles    
Events      
Averages and records for this station are not official NWS values.
T = Trace of Precipitation, MM = Missing Value Source: NWS Daily Summary

Daily Weather History Graph

Daily Weather History Graph

Search for Another Location

Airport or City:

Trip Planner

Search our weather history database for the weather conditions in past years. The results will help you decide how hot, cold, wet, or windy it might be!

Date:

Astronomy

Jun. 26, 2013 Rise Set
Actual Time 5:55 AM CDT 9:03 PM CDT
Civil Twilight 5:21 AM CDT 9:37 PM CDT
Nautical Twilight 4:38 AM CDT 10:20 PM CDT
Astronomical Twilight 3:46 AM CDT 11:11 PM CDT
Moon 11:24 PM CDT (6/26) 9:50 AM CDT (6/26)
Length of Visible Light 16h 15m
Length of Day
15h 08m
Waning Gibbous, 85% of the Moon is Illuminated
Jun 26
Waning Gibbous
Jun 29
Last Quarter
Jul 8
New
Jul 15
First Quarter
Jul 22
Full

Hourly Weather History & Observations

Time (CDT) Temp. Heat Index Dew Point Humidity Pressure Visibility Wind Dir Wind Speed Gust Speed Precip Events Conditions
12:15 AM 77.0 °F - 73.4 °F 89% 29.69 in 10.0 mi Calm Calm - N/A   Clear
12:35 AM 75.7 °F - 72.5 °F 90% 29.69 in 10.0 mi Calm Calm - N/A   Clear
12:55 AM 76.1 °F - 72.9 °F 90% 29.69 in 10.0 mi South 3.5 mph - N/A   Clear
1:15 AM 75.2 °F - 72.5 °F 91% 29.69 in 10.0 mi Calm Calm - N/A   Clear
1:35 AM 75.4 °F - 72.9 °F 92% 29.69 in 10.0 mi Calm Calm - N/A   Clear
1:55 AM 74.8 °F - 72.1 °F 91% 29.69 in 10.0 mi Calm Calm - N/A   Clear
2:15 AM 73.9 °F - 71.8 °F 93% 29.69 in 7.0 mi WSW 6.9 mph - N/A   Clear
2:35 AM 74.3 °F - 71.8 °F 92% 29.69 in 10.0 mi SW 3.5 mph - N/A   Clear
2:55 AM 75.2 °F - 72.5 °F 91% 29.70 in 10.0 mi Calm Calm - N/A   Clear
3:15 AM 75.2 °F - 72.7 °F 92% 29.70 in 7.0 mi Calm Calm - N/A   Clear
3:35 AM 76.3 °F - 73.0 °F 90% 29.70 in 10.0 mi West 11.5 mph - N/A   Clear
3:55 AM 77.0 °F - 73.0 °F 88% 29.70 in 10.0 mi West 10.4 mph - N/A   Clear
4:15 AM 76.5 °F - 72.9 °F 89% 29.71 in 10.0 mi West 10.4 mph - N/A   Clear
4:35 AM 76.5 °F - 72.7 °F 88% 29.72 in 10.0 mi WNW 8.1 mph - N/A   Clear
4:55 AM 76.6 °F - 72.7 °F 87% 29.73 in 10.0 mi WNW 12.7 mph 17.3 mph N/A   Clear
5:15 AM 77.0 °F - 71.8 °F 84% 29.74 in 10.0 mi WNW 13.8 mph - N/A   Clear
5:35 AM 76.5 °F - 69.8 °F 80% 29.75 in 10.0 mi NW 12.7 mph - N/A   Clear
5:55 AM 75.4 °F - 68.4 °F 79% 29.77 in 10.0 mi NW 15.0 mph 19.6 mph N/A   Clear
6:15 AM 74.5 °F - 68.0 °F 80% 29.77 in 10.0 mi NW 12.7 mph - N/A   Clear
6:35 AM 73.9 °F - 68.0 °F 82% 29.78 in 10.0 mi NW 11.5 mph - N/A   Clear
6:55 AM 73.9 °F - 67.6 °F 81% 29.79 in 10.0 mi NW 11.5 mph - N/A   Clear
7:15 AM 74.3 °F - 67.6 °F 80% 29.79 in 10.0 mi NW 11.5 mph 16.1 mph N/A   Clear
7:35 AM 75.2 °F - 67.3 °F 76% 29.80 in 10.0 mi NNW 9.2 mph - N/A   Clear
7:55 AM 75.9 °F - 67.6 °F 75% 29.80 in 10.0 mi NNW 11.5 mph - N/A   Clear
8:15 AM 76.5 °F - 67.8 °F 75% 29.81 in 10.0 mi NNW 15.0 mph - N/A   Clear
8:35 AM 77.4 °F - 68.0 °F 73% 29.82 in 10.0 mi NNW 13.8 mph - N/A   Clear
8:55 AM 78.4 °F - 68.0 °F 70% 29.83 in 10.0 mi NNW 15.0 mph 18.4 mph N/A   Clear
9:15 AM 79.5 °F - 66.9 °F 65% 29.83 in 10.0 mi NNW 16.1 mph 19.6 mph N/A   Clear
9:55 AM 81.5 °F 83.6 °F 66.0 °F 59% 29.84 in 10.0 mi NNW 13.8 mph - N/A   Clear
10:15 AM 82.2 °F 84.4 °F 66.0 °F 58% 29.85 in 10.0 mi NNW 11.5 mph - N/A   Clear
10:35 AM 83.3 °F 85.5 °F 66.0 °F 56% 29.85 in 10.0 mi NW 11.5 mph - N/A   Clear
10:55 AM 83.7 °F 85.1 °F 64.2 °F 52% 29.86 in 10.0 mi NNW 13.8 mph 18.4 mph N/A   Clear
11:15 AM 84.6 °F 86.3 °F 65.3 °F 52% 29.87 in 10.0 mi NW 9.2 mph 17.3 mph N/A   Clear
11:35 AM 85.1 °F 86.9 °F 64.9 °F 51% 29.87 in 10.0 mi NW 8.1 mph - N/A   Clear
11:55 AM 86.0 °F 87.3 °F 64.2 °F 48% 29.88 in 10.0 mi NW 10.4 mph - N/A   Clear
12:15 PM 86.5 °F 86.8 °F 61.7 °F 43% 29.88 in 10.0 mi NW 11.5 mph - N/A   Clear
12:35 PM 87.6 °F 87.2 °F 59.9 °F 39% 29.88 in 10.0 mi NW 12.7 mph - N/A   Clear
12:55 PM 88.7 °F 88.3 °F 60.3 °F 38% 29.88 in 10.0 mi NNW 12.7 mph - N/A   Clear
1:15 PM 88.5 °F 88.1 °F 59.5 °F 38% 29.88 in 10.0 mi NNW 10.4 mph 17.3 mph N/A   Clear
1:35 PM 88.9 °F 88.5 °F 60.1 °F 38% 29.88 in 10.0 mi WNW 9.2 mph - N/A   Clear
1:55 PM 88.7 °F 88.0 °F 59.4 °F 37% 29.88 in 10.0 mi NNW 10.4 mph - N/A   Clear
2:15 PM 89.6 °F 88.9 °F 59.5 °F 36% 29.88 in 10.0 mi NW 11.5 mph - N/A   Clear
2:35 PM 90.1 °F 89.1 °F 58.5 °F 34% 29.87 in 10.0 mi NW 9.2 mph - N/A   Clear
2:55 PM 90.0 °F 89.1 °F 58.6 °F 35% 29.87 in 10.0 mi NW 9.2 mph - N/A   Clear
3:15 PM 90.5 °F 90.1 °F 60.4 °F 36% 29.87 in 10.0 mi NW 6.9 mph - N/A   Clear
3:35 PM 90.0 °F 88.6 °F 57.4 °F 33% 29.86 in 10.0 mi North 4.6 mph - N/A   Clear
3:55 PM 90.0 °F 88.8 °F 58.1 °F 34% 29.87 in 10.0 mi NNW 5.8 mph - N/A   Clear
4:15 PM 91.4 °F 89.9 °F 57.2 °F 31% 29.87 in 10.0 mi NNW 8.1 mph - N/A   Clear
4:35 PM 90.5 °F 89.5 °F 58.5 °F 34% 29.87 in 10.0 mi NW 5.8 mph - N/A   Clear
4:55 PM 91.4 °F 89.9 °F 56.7 °F 31% 29.86 in 10.0 mi NW 6.9 mph - N/A   Clear
5:15 PM 91.6 °F 89.8 °F 56.5 °F 30% 29.86 in 10.0 mi NW 4.6 mph - N/A   Clear
5:35 PM 91.4 °F 89.9 °F 57.2 °F 31% 29.86 in 10.0 mi NW 5.8 mph - N/A   Clear
5:55 PM 91.4 °F 89.6 °F 56.1 °F 30% 29.86 in 10.0 mi North 6.9 mph - N/A   Clear
6:15 PM 91.0 °F 89.4 °F 56.3 °F 31% 29.86 in 10.0 mi North 4.6 mph - N/A   Clear
6:35 PM 91.4 °F 89.9 °F 56.7 °F 31% 29.86 in 10.0 mi NNW 6.9 mph - N/A   Clear
6:55 PM 90.5 °F 89.0 °F 57.0 °F 32% 29.87 in 10.0 mi North 3.5 mph - N/A   Clear
7:15 PM 88.2 °F 88.4 °F 61.9 °F 41% 29.87 in 10.0 mi NNE 3.5 mph - N/A   Clear
7:35 PM 87.8 °F 88.5 °F 62.4 °F 43% 29.87 in 10.0 mi ENE 3.5 mph - N/A   Clear
7:55 PM 86.9 °F 87.5 °F 62.8 °F 44% 29.87 in 10.0 mi Calm Calm - N/A   Clear
8:15 PM 86.4 °F 86.8 °F 62.1 °F 44% 29.87 in 10.0 mi Calm Calm - N/A   Clear
8:35 PM 84.0 °F 86.5 °F 66.7 °F 56% 29.87 in 10.0 mi East 3.5 mph - N/A   Clear
8:55 PM 80.8 °F 83.6 °F 68.4 °F 66% 29.87 in 10.0 mi ESE 3.5 mph - N/A   Clear
9:15 PM 80.4 °F 83.1 °F 68.0 °F 66% 29.87 in 10.0 mi Calm Calm - N/A   Clear
9:35 PM 79.5 °F - 65.8 °F 63% 29.87 in 10.0 mi Calm Calm - N/A   Clear
9:55 PM 79.3 °F - 64.2 °F 60% 29.88 in 10.0 mi Calm Calm - N/A   Clear
10:15 PM 78.8 °F - 64.6 °F 62% 29.88 in 10.0 mi Calm Calm - N/A   Clear
10:35 PM 78.3 °F - 64.9 °F 63% 29.90 in 10.0 mi Calm Calm - N/A   Clear
10:55 PM 77.2 °F - 65.7 °F 67% 29.90 in 10.0 mi Calm Calm - N/A   Clear
11:15 PM 77.5 °F - 65.5 °F 66% 29.90 in 10.0 mi Calm Calm - N/A   Clear
11:35 PM 75.7 °F - 65.8 °F 71% 29.90 in 10.0 mi Calm Calm - N/A   Clear
11:55 PM 72.9 °F - 66.2 °F 80% 29.90 in 10.0 mi Calm Calm - N/A   Clear